PSLV R/B, 25759

Orbit data source: Space-Track

PSLV R/B, 25759 is space debris in SSO originally from a launch on Wed, 26 May 1999 UTC launched from the Sirharikota (SRI). Debris objects in space refer to the collection of defunct objects orbiting the Earth. Examples of debris include non-operational satellites, rocket bodies, and fragments generated from explosions, collisions, or faulty payload assembly.

Loading next visibility...
Identifier
25759, 1999-029D
Orbit
SSO
Country
Flag of ININ / IND
Related business
Manufacturer
VSSC/LPSC
Mission
Spacecraft
Bus & Motor
PS-4, Unknown motor
Mass
920 kg wet, 920 kg dry
Launch date (UTC)
1999-05-26 (26 years ago)
Launch vehicle
Unknown
Launch site
Sirharikota (SRI)
Object type
Payload
Rocket body
Debris
Shape & HBR
Cyl + Cyl + 2 Nozzle, 1.6 m
Radar Cross Section
6.185 m², Large (>1 m²)

Expand to show TLE details & history
Last TLE update: 8 hours ago

TLE from 8 hours ago
0 PSLV R/B
1 25759U 99029D   25259.56819808  .00000248  00000-0  68192-4 0  9999
2 25759  98.6455 280.9976 0026884   9.8307 350.3409 14.55604170395456
Epoch: 2025-09-16T13:38Z
TLE epoch observation values (Epoch: 2025-09-16T13:38:12.314Z)
Latitude
-0.00008°
Longitude
80.68967°
Altitude
691.587 km
Speed
7.52 km/s
True Right ascension
18h 43m 59s
True Declination
0° 00' 00"
Sunlit
Object was in daylight at epoch
Visualization orbit readout
Latitude
Unknown
Longitude
Unknown
Altitude
Unknown
Speed
Unknown
Apparent Right ascension
Unknown
Apparent Declination
Unknown
Sunlit
N/A
Visualization observer readout
Local Sidereal Time
14:03:26
Azimuth
Unknown
Elevation
Unknown
Doppler factor
Unknown
Orbital elements
Apogee altitude
723.552 km
Perigee altitude
685.47 km
Semi-major axis
7,082.648 km
Eccentricity
0.00269
Inclination
98.6455°
RAAN
280.9976°
Arg. of periapsis
9.8307°
True anomaly
350.28904°
Mean anomaly
350.3409°
Eccentric anomaly
350.31499°
Mean motion
3.64124 °/min
Orbital period
98.87 mins
BSTAR
0.000068192
Loading maneuver chart data...
Computing Atmospheric mass density...
Loading historical data...
Loading historical data...
Loading historical data...
Loading historical data...
Loading historical data...
Loading historical data...
Loading historical data...
Other satellites on launch #29 in the year 1999 (1999-05-26 UTC)

Documentation

Showing up to 5 results
|